TimeEDT,TemperatureF,Dew PointF,Humidity,Sea Level PressureIn,VisibilityMPH,Wind Direction,Wind SpeedMPH,Gust SpeedMPH,PrecipitationIn,Events,Conditions,WindDirDegrees,DateUTC
12:51 AM,39.0,37.0,93,29.95,10.0,NW,9.2,18.4,0.02,Rain,Light Rain,320,2012-10-29 04:51:00
1:00 AM,37.4,37.4,100,29.94,10.0,WNW,10.4,18.4,0.00,Rain,Light Rain,300,2012-10-29 05:00:00
1:28 AM,37.4,35.6,93,29.93,10.0,NNW,10.4,17.3,0.00,Rain,Light Rain,330,2012-10-29 05:28:00
1:51 AM,37.9,36.0,93,29.94,10.0,NW,11.5,18.4,0.00,Rain,Light Rain,310,2012-10-29 05:51:00
2:51 AM,37.9,36.0,93,29.93,10.0,NW,10.4,18.4,0.01,Rain,Light Rain,320,2012-10-29 06:51:00
3:51 AM,37.9,36.0,93,29.92,10.0,NW,10.4,17.3,0.02,Rain,Light Rain,310,2012-10-29 07:51:00
4:51 AM,37.9,36.0,93,29.91,10.0,NW,10.4,19.6,0.02,Rain,Light Rain,310,2012-10-29 08:51:00
5:51 AM,37.9,35.1,89,29.91,10.0,NW,13.8,18.4,0.01,Rain,Light Rain,310,2012-10-29 09:51:00
6:51 AM,37.9,36.0,93,29.90,10.0,NW,11.5,17.3,0.01,Rain,Light Rain,320,2012-10-29 10:51:00
7:51 AM,37.9,35.1,89,29.90,10.0,NW,11.5,18.4,0.00,,Overcast,320,2012-10-29 11:51:00
8:51 AM,37.0,35.1,93,29.90,10.0,NW,10.4,19.6,0.01,Rain,Light Rain,310,2012-10-29 12:51:00
9:51 AM,37.0,35.1,93,29.89,10.0,NW,11.5,21.9,0.01,Rain,Light Rain,310,2012-10-29 13:51:00
10:51 AM,37.9,35.1,89,29.88,6.0,WNW,8.1,19.6,0.02,Rain,Light Rain,300,2012-10-29 14:51:00
11:51 AM,37.9,35.1,89,29.87,3.0,NW,12.7,25.3,0.02,Rain,Light Rain,310,2012-10-29 15:51:00
12:51 PM,37.9,35.1,89,29.85,3.0,WNW,10.4,23.0,0.04,Rain,Light Rain,300,2012-10-29 16:51:00
1:51 PM,37.9,36.0,93,29.83,3.0,WNW,12.7,18.4,0.03,Rain,Light Rain,300,2012-10-29 17:51:00
2:51 PM,39.0,36.0,89,29.80,3.0,NW,11.5,17.3,0.05,Rain,Light Rain,310,2012-10-29 18:51:00
3:51 PM,37.9,36.0,93,29.78,3.0,WNW,12.7,21.9,0.05,Rain,Light Rain,300,2012-10-29 19:51:00
4:51 PM,37.4,35.6,93,29.74,3.0,WNW,9.2,19.6,N/A,Rain,Light Rain,300,2012-10-29 20:51:00
5:51 PM,37.9,36.0,93,29.73,3.0,NW,15.0,25.3,0.04,Rain,Light Rain,310,2012-10-29 21:51:00
6:51 PM,37.9,35.1,89,29.71,3.0,WNW,13.8,25.3,0.03,Rain,Light Rain,300,2012-10-29 22:51:00
7:51 PM,37.0,35.1,93,29.69,7.0,NW,12.7,25.3,0.06,Rain,Light Rain,310,2012-10-29 23:51:00
8:51 PM,37.0,35.1,93,29.67,7.0,WNW,16.1,27.6,0.04,Rain,Light Rain,300,2012-10-30 00:51:00
9:51 PM,37.0,34.0,89,29.66,9.0,WNW,15.0,25.3,0.03,Rain,Light Rain,290,2012-10-30 01:51:00
10:51 PM,36.0,33.1,89,29.63,6.0,WNW,15.0,25.3,0.06,Rain,Light Rain,300,2012-10-30 02:51:00
11:51 PM,35.1,33.1,92,29.60,6.0,WNW,15.0,24.2,0.05,Rain,Light Rain,290,2012-10-30 03:51:00
11:54 PM,35.6,33.8,93,29.59,6.0,WNW,12.7,24.2,0.00,Rain,Light Rain,290,2012-10-30 03:54:00